Year,Month,Day,Hour,Minute,Value (Times are PST for temperature in C)
2017,09,01,00,00,16.20
2017,09,01,00,01,16.20
2017,09,01,00,02,16.10
2017,09,01,00,03,16.10
2017,09,01,00,04,16.10
2017,09,01,00,05,16.10
2017,09,01,00,06,16.10
2017,09,01,00,07,16.10
2017,09,01,00,08,16.00
2017,09,01,00,09,16.00
2017,09,01,00,10,16.00
2017,09,01,00,11,15.90
2017,09,01,00,12,15.90
2017,09,01,00,13,15.90
2017,09,01,00,14,15.90
2017,09,01,00,15,15.80
2017,09,01,00,16,15.80
2017,09,01,00,17,15.80
2017,09,01,00,18,15.80
2017,09,01,00,19,15.80
2017,09,01,00,20,15.80
2017,09,01,00,21,15.80
2017,09,01,00,22,15.70
2017,09,01,00,23,15.70
2017,09,01,00,24,15.70
2017,09,01,00,25,15.70
2017,09,01,00,26,15.70
2017,09,01,00,27,15.70
2017,09,01,00,28,15.60
2017,09,01,00,29,15.60
2017,09,01,00,30,15.60
2017,09,01,00,31,15.60
2017,09,01,00,32,15.60
2017,09,01,00,33,15.50
2017,09,01,00,34,15.50
2017,09,01,00,35,15.40
2017,09,01,00,36,15.40
2017,09,01,00,37,15.40
2017,09,01,00,38,15.30
2017,09,01,00,39,15.30
2017,09,01,00,40,15.30
2017,09,01,00,41,15.20
2017,09,01,00,42,15.20
2017,09,01,00,43,15.20
2017,09,01,00,44,15.20
2017,09,01,00,45,15.10
2017,09,01,00,46,15.10
2017,09,01,00,47,15.10
2017,09,01,00,48,15.10
2017,09,01,00,49,15.10
2017,09,01,00,50,15.10
2017,09,01,00,51,15.10
2017,09,01,00,52,15.10
2017,09,01,00,53,15.00
2017,09,01,00,54,15.00
2017,09,01,00,55,15.00
2017,09,01,00,56,15.00
2017,09,01,00,57,15.00
2017,09,01,00,58,14.90
2017,09,01,00,59,14.90
2017,09,01,01,00,14.90
2017,09,01,01,01,14.80
2017,09,01,01,02,14.80
2017,09,01,01,03,14.80
2017,09,01,01,04,14.80
2017,09,01,01,05,14.80
2017,09,01,01,06,14.70
2017,09,01,01,07,14.70
2017,09,01,01,08,14.70
2017,09,01,01,09,14.70
2017,09,01,01,10,14.60
2017,09,01,01,11,14.60
2017,09,01,01,12,14.60
2017,09,01,01,13,14.60
2017,09,01,01,14,14.60
2017,09,01,01,15,14.50
2017,09,01,01,16,14.50
2017,09,01,01,17,14.50
2017,09,01,01,18,14.50
2017,09,01,01,19,14.50
2017,09,01,01,20,14.40
2017,09,01,01,21,14.40
2017,09,01,01,22,14.40
2017,09,01,01,23,14.40
2017,09,01,01,24,14.40
2017,09,01,01,25,14.40
2017,09,01,01,26,14.40
2017,09,01,01,27,14.30
2017,09,01,01,28,14.30
2017,09,01,01,29,14.30
2017,09,01,01,30,14.30
2017,09,01,01,31,14.30
2017,09,01,01,32,14.20
2017,09,01,01,33,14.20
2017,09,01,01,34,14.20
2017,09,01,01,35,14.20
2017,09,01,01,36,14.20
2017,09,01,01,37,14.20
2017,09,01,01,38,14.20
2017,09,01,01,39,14.20
2017,09,01,01,40,14.10
2017,09,01,01,41,14.10
2017,09,01,01,42,14.10
2017,09,01,01,43,14.10
2017,09,01,01,44,14.10
2017,09,01,01,45,14.10
2017,09,01,01,46,14.10
2017,09,01,01,47,14.00
2017,09,01,01,48,14.00
2017,09,01,01,49,14.00
2017,09,01,01,50,14.00
2017,09,01,01,51,13.90
2017,09,01,01,52,13.90
2017,09,01,01,53,13.90
2017,09,01,01,54,13.90
2017,09,01,01,55,13.90
2017,09,01,01,56,13.90
2017,09,01,01,57,13.90
2017,09,01,01,58,13.80
2017,09,01,01,59,13.80
2017,09,01,02,00,13.80
2017,09,01,02,01,13.80
2017,09,01,02,02,13.80
2017,09,01,02,03,13.80
2017,09,01,02,04,13.80
2017,09,01,02,05,13.80
2017,09,01,02,06,13.80
2017,09,01,02,07,13.80
2017,09,01,02,08,13.80
2017,09,01,02,09,13.80
2017,09,01,02,10,13.80
2017,09,01,02,11,13.80
2017,09,01,02,12,13.80
2017,09,01,02,13,13.80
2017,09,01,02,14,13.80
2017,09,01,02,15,13.80
2017,09,01,02,16,13.80
2017,09,01,02,17,13.80
2017,09,01,02,18,13.80
2017,09,01,02,19,13.80
2017,09,01,02,20,13.80
2017,09,01,02,21,13.80
2017,09,01,02,22,13.80
2017,09,01,02,23,13.80
2017,09,01,02,24,13.70
2017,09,01,02,25,13.70
2017,09,01,02,26,13.70
2017,09,01,02,27,13.70
2017,09,01,02,28,13.70
2017,09,01,02,29,13.70
2017,09,01,02,30,13.70
2017,09,01,02,31,13.60
2017,09,01,02,32,13.60
2017,09,01,02,33,13.60
2017,09,01,02,34,13.60
2017,09,01,02,35,13.60
2017,09,01,02,36,13.50
2017,09,01,02,37,13.50
2017,09,01,02,38,13.50
2017,09,01,02,39,13.50
2017,09,01,02,40,13.40
2017,09,01,02,41,13.40
2017,09,01,02,42,13.40
2017,09,01,02,43,13.40
2017,09,01,02,44,13.30
2017,09,01,02,45,13.30
2017,09,01,02,46,13.30
2017,09,01,02,47,13.30
2017,09,01,02,48,13.30
2017,09,01,02,49,13.30
2017,09,01,02,50,13.30
2017,09,01,02,51,13.30
2017,09,01,02,52,13.20
2017,09,01,02,53,13.20
2017,09,01,02,54,13.20
2017,09,01,02,55,13.20
2017,09,01,02,56,13.20
2017,09,01,02,57,13.20
2017,09,01,02,58,13.20
2017,09,01,02,59,13.10
2017,09,01,03,00,13.10
2017,09,01,03,01,13.10
2017,09,01,03,02,13.10
2017,09,01,03,03,13.10
2017,09,01,03,04,13.10
2017,09,01,03,05,13.10
2017,09,01,03,06,13.00
2017,09,01,03,07,13.00
2017,09,01,03,08,13.00
2017,09,01,03,09,13.00
2017,09,01,03,10,13.00
2017,09,01,03,11,13.00
2017,09,01,03,12,12.90
2017,09,01,03,13,12.90
2017,09,01,03,14,12.90
2017,09,01,03,15,12.90
2017,09,01,03,16,12.90
2017,09,01,03,17,12.90
2017,09,01,03,18,12.90
2017,09,01,03,19,12.90
2017,09,01,03,20,12.90
2017,09,01,03,21,12.90
2017,09,01,03,22,12.90
2017,09,01,03,23,12.80
2017,09,01,03,24,12.90
2017,09,01,03,25,12.90
2017,09,01,03,26,12.90
2017,09,01,03,27,12.90
2017,09,01,03,28,12.90
2017,09,01,03,29,12.90
2017,09,01,03,30,12.90
2017,09,01,03,31,12.90
2017,09,01,03,32,13.00
2017,09,01,03,33,12.90
2017,09,01,03,34,13.00
2017,09,01,03,35,12.90
2017,09,01,03,36,13.00
2017,09,01,03,37,13.00
2017,09,01,03,38,13.00
2017,09,01,03,39,13.00
2017,09,01,03,40,13.00
2017,09,01,03,41,13.00
2017,09,01,03,42,13.00
2017,09,01,03,43,13.00
2017,09,01,03,44,13.00
2017,09,01,03,45,12.90
2017,09,01,03,46,12.90
2017,09,01,03,47,12.90
2017,09,01,03,48,12.90
2017,09,01,03,49,12.90
2017,09,01,03,50,12.90
2017,09,01,03,51,12.90
2017,09,01,03,52,12.80
2017,09,01,03,53,12.80
2017,09,01,03,54,12.80
2017,09,01,03,55,12.80
2017,09,01,03,56,12.80
2017,09,01,03,57,12.70
2017,09,01,03,58,12.70
2017,09,01,03,59,12.70
2017,09,01,04,00,12.70
2017,09,01,04,01,12.70
2017,09,01,04,02,12.60
2017,09,01,04,03,12.60
2017,09,01,04,04,12.60
2017,09,01,04,05,12.60
2017,09,01,04,06,12.60
2017,09,01,04,07,12.60
2017,09,01,04,08,12.60
2017,09,01,04,09,12.60
2017,09,01,04,10,12.50
2017,09,01,04,11,12.50
2017,09,01,04,12,12.50
2017,09,01,04,13,12.50
2017,09,01,04,14,12.50
2017,09,01,04,15,12.50
2017,09,01,04,16,12.50
2017,09,01,04,17,12.40
2017,09,01,04,18,12.40
2017,09,01,04,19,12.40
2017,09,01,04,20,12.40
2017,09,01,04,21,12.40
2017,09,01,04,22,12.40
2017,09,01,04,23,12.40
2017,09,01,04,24,12.30
2017,09,01,04,25,12.30
2017,09,01,04,26,12.30
2017,09,01,04,27,12.30
2017,09,01,04,28,12.40
2017,09,01,04,29,12.40
2017,09,01,04,30,12.40
2017,09,01,04,31,12.40
2017,09,01,04,32,12.40
2017,09,01,04,33,12.40
2017,09,01,04,34,12.40
2017,09,01,04,35,12.40
2017,09,01,04,36,12.40
2017,09,01,04,37,12.40
2017,09,01,04,38,12.40
2017,09,01,04,39,12.40
2017,09,01,04,40,12.40
2017,09,01,04,41,12.30
2017,09,01,04,42,12.30
2017,09,01,04,43,12.30
2017,09,01,04,44,12.30
2017,09,01,04,45,12.30
2017,09,01,04,46,12.30
2017,09,01,04,47,12.30
2017,09,01,04,48,12.30
2017,09,01,04,49,12.30
2017,09,01,04,50,12.30
2017,09,01,04,51,12.30
2017,09,01,04,52,12.30
2017,09,01,04,53,12.20
2017,09,01,04,54,12.20
2017,09,01,04,55,12.20
2017,09,01,04,56,12.20
2017,09,01,04,57,12.20
2017,09,01,04,58,12.20
2017,09,01,04,59,12.10
2017,09,01,05,00,12.10
2017,09,01,05,01,12.10
2017,09,01,05,02,12.10
2017,09,01,05,03,12.10
2017,09,01,05,04,12.10
2017,09,01,05,05,12.10
2017,09,01,05,06,12.10
2017,09,01,05,07,12.10
2017,09,01,05,08,12.10
2017,09,01,05,09,12.10
2017,09,01,05,10,12.10
2017,09,01,05,11,12.10
2017,09,01,05,12,12.10
2017,09,01,05,13,12.10
2017,09,01,05,14,12.10
2017,09,01,05,15,12.10
2017,09,01,05,16,12.10
2017,09,01,05,17,12.10
2017,09,01,05,18,12.10
2017,09,01,05,19,12.00
2017,09,01,05,20,12.00
2017,09,01,05,21,12.00
2017,09,01,05,22,12.00
2017,09,01,05,23,12.00
2017,09,01,05,24,12.00
2017,09,01,05,25,12.00
2017,09,01,05,26,12.00
2017,09,01,05,27,12.00
2017,09,01,05,28,12.00
2017,09,01,05,29,12.00
2017,09,01,05,30,12.00
2017,09,01,05,31,12.00
2017,09,01,05,32,12.00
2017,09,01,05,33,12.00
2017,09,01,05,34,12.00
2017,09,01,05,35,12.00
2017,09,01,05,36,12.00
2017,09,01,05,37,12.00
2017,09,01,05,38,11.90
2017,09,01,05,39,11.90
2017,09,01,05,40,11.90
2017,09,01,05,41,11.90
2017,09,01,05,42,11.90
2017,09,01,05,43,11.90
2017,09,01,05,44,11.90
2017,09,01,05,45,11.90
2017,09,01,05,46,11.80
2017,09,01,05,47,11.80
2017,09,01,05,48,11.80
2017,09,01,05,49,11.80
2017,09,01,05,50,11.80
2017,09,01,05,51,11.80
2017,09,01,05,52,11.80
2017,09,01,05,53,11.80
2017,09,01,05,54,11.80
2017,09,01,05,55,11.80
2017,09,01,05,56,11.80
2017,09,01,05,57,11.80
2017,09,01,05,58,11.80
2017,09,01,05,59,11.80
2017,09,01,06,00,11.80
2017,09,01,06,01,11.80
2017,09,01,06,02,11.80
2017,09,01,06,03,11.80
2017,09,01,06,04,11.80
2017,09,01,06,05,11.80
2017,09,01,06,06,11.80
2017,09,01,06,07,11.70
2017,09,01,06,08,11.70
2017,09,01,06,09,11.70
2017,09,01,06,10,11.70
2017,09,01,06,11,11.70
2017,09,01,06,12,11.70
2017,09,01,06,13,11.70
2017,09,01,06,14,11.70
2017,09,01,06,15,11.70
2017,09,01,06,16,11.60
2017,09,01,06,17,11.60
2017,09,01,06,18,11.60
2017,09,01,06,19,11.60
2017,09,01,06,20,11.60
2017,09,01,06,21,11.60
2017,09,01,06,22,11.60
2017,09,01,06,23,11.60
2017,09,01,06,24,11.60
2017,09,01,06,25,11.60
2017,09,01,06,26,11.60
2017,09,01,06,27,11.50
2017,09,01,06,28,11.60
2017,09,01,06,29,11.50
2017,09,01,06,30,11.50
2017,09,01,06,31,11.50
2017,09,01,06,32,11.50
2017,09,01,06,33,11.50
2017,09,01,06,34,11.50
2017,09,01,06,35,11.40
2017,09,01,06,36,11.40
2017,09,01,06,37,11.40
2017,09,01,06,38,11.40
2017,09,01,06,39,11.40
2017,09,01,06,40,11.40
2017,09,01,06,41,11.40
2017,09,01,06,42,11.40
2017,09,01,06,43,11.40
2017,09,01,06,44,11.40
2017,09,01,06,45,11.40
2017,09,01,06,46,11.40
2017,09,01,06,47,11.40
2017,09,01,06,48,11.40
2017,09,01,06,49,11.40
2017,09,01,06,50,11.40
2017,09,01,06,51,11.40
2017,09,01,06,52,11.40
2017,09,01,06,53,11.40
2017,09,01,06,54,11.40
2017,09,01,06,55,11.40
2017,09,01,06,56,11.40
2017,09,01,06,57,11.40
2017,09,01,06,58,11.40
2017,09,01,06,59,11.40
2017,09,01,07,00,11.40
2017,09,01,07,01,11.40
2017,09,01,07,02,11.40
2017,09,01,07,03,11.40
2017,09,01,07,04,11.40
2017,09,01,07,05,11.40
2017,09,01,07,06,11.40
2017,09,01,07,07,11.30
2017,09,01,07,08,11.30
2017,09,01,07,09,11.30
2017,09,01,07,10,11.30
2017,09,01,07,11,11.30
2017,09,01,07,12,11.30
2017,09,01,07,13,11.30
2017,09,01,07,14,11.40
2017,09,01,07,15,11.40
2017,09,01,07,16,11.40
2017,09,01,07,17,11.40
2017,09,01,07,18,11.40
2017,09,01,07,19,11.40
2017,09,01,07,20,11.40
2017,09,01,07,21,11.40
2017,09,01,07,22,11.50
2017,09,01,07,23,11.50
2017,09,01,07,24,11.50
2017,09,01,07,25,11.50
2017,09,01,07,26,11.50
2017,09,01,07,27,11.60
2017,09,01,07,28,11.60
2017,09,01,07,29,11.60
2017,09,01,07,30,11.60
2017,09,01,07,31,11.60
2017,09,01,07,32,11.60
2017,09,01,07,33,11.60
2017,09,01,07,34,11.60
2017,09,01,07,35,11.70
2017,09,01,07,36,11.70
2017,09,01,07,37,11.70
2017,09,01,07,38,11.70
2017,09,01,07,39,11.70
2017,09,01,07,40,11.80
2017,09,01,07,41,11.80
2017,09,01,07,42,11.80
2017,09,01,07,43,11.90
2017,09,01,07,44,11.90
2017,09,01,07,45,11.90
2017,09,01,07,46,12.00
2017,09,01,07,47,12.00
2017,09,01,07,48,12.10
2017,09,01,07,49,12.20
2017,09,01,07,50,12.20
2017,09,01,07,51,12.20
2017,09,01,07,52,12.30
2017,09,01,07,53,12.30
2017,09,01,07,54,12.40
2017,09,01,07,55,12.40
2017,09,01,07,56,12.50
2017,09,01,07,57,12.50
2017,09,01,07,58,12.60
2017,09,01,07,59,12.70
2017,09,01,08,00,12.80
2017,09,01,08,01,12.90
2017,09,01,08,02,12.90
2017,09,01,08,03,13.00
2017,09,01,08,04,13.00
2017,09,01,08,05,13.00
2017,09,01,08,06,13.10
2017,09,01,08,07,13.10
2017,09,01,08,08,13.20
2017,09,01,08,09,13.20
2017,09,01,08,10,13.20
2017,09,01,08,11,13.30
2017,09,01,08,12,13.30
2017,09,01,08,13,13.40
2017,09,01,08,14,13.40
2017,09,01,08,15,13.50
2017,09,01,08,16,13.50
2017,09,01,08,17,13.50
2017,09,01,08,18,13.60
2017,09,01,08,19,13.60
2017,09,01,08,20,13.60
2017,09,01,08,21,13.70
2017,09,01,08,22,13.70
2017,09,01,08,23,13.70
2017,09,01,08,24,13.80
2017,09,01,08,25,13.80
2017,09,01,08,26,13.80
2017,09,01,08,27,13.80
2017,09,01,08,28,13.90
2017,09,01,08,29,13.90
2017,09,01,08,30,13.90
2017,09,01,08,31,13.90
2017,09,01,08,32,14.00
2017,09,01,08,33,14.10
2017,09,01,08,34,14.10
2017,09,01,08,35,14.10
2017,09,01,08,36,14.10
2017,09,01,08,37,14.10
2017,09,01,08,38,14.10
2017,09,01,08,39,14.10
2017,09,01,08,40,14.20
2017,09,01,08,41,14.20
2017,09,01,08,42,14.20
2017,09,01,08,43,14.20
2017,09,01,08,44,14.30
2017,09,01,08,45,14.30
2017,09,01,08,46,14.30
2017,09,01,08,47,14.40
2017,09,01,08,48,14.40
2017,09,01,08,49,14.40
2017,09,01,08,50,14.50
2017,09,01,08,51,14.50
2017,09,01,08,52,14.60
2017,09,01,08,53,14.60
2017,09,01,08,54,14.70
2017,09,01,08,55,14.80
2017,09,01,08,56,14.80
2017,09,01,08,57,14.80
2017,09,01,08,58,14.90
2017,09,01,08,59,14.90
2017,09,01,09,00,14.90
2017,09,01,09,01,14.90
2017,09,01,09,02,15.00
2017,09,01,09,03,15.00
2017,09,01,09,04,15.00
2017,09,01,09,05,15.00
2017,09,01,09,06,15.10
2017,09,01,09,07,15.10
2017,09,01,09,08,15.20
2017,09,01,09,09,15.20
2017,09,01,09,10,15.20
2017,09,01,09,11,15.30
2017,09,01,09,12,15.30
2017,09,01,09,13,15.30
2017,09,01,09,14,15.30
2017,09,01,09,15,15.30
2017,09,01,09,16,15.40
2017,09,01,09,17,15.40
2017,09,01,09,18,15.40
2017,09,01,09,19,15.50
2017,09,01,09,20,15.50
2017,09,01,09,21,15.50
2017,09,01,09,22,15.60
2017,09,01,09,23,15.60
2017,09,01,09,24,15.70
2017,09,01,09,25,15.70
2017,09,01,09,26,15.70
2017,09,01,09,27,15.80
2017,09,01,09,28,15.80
2017,09,01,09,29,15.80
2017,09,01,09,30,15.80
2017,09,01,09,31,15.90
2017,09,01,09,32,16.00
2017,09,01,09,33,16.10
2017,09,01,09,34,16.10
2017,09,01,09,35,16.20
2017,09,01,09,36,16.20
2017,09,01,09,37,16.30
2017,09,01,09,38,16.40
2017,09,01,09,39,16.50
2017,09,01,09,40,16.50
2017,09,01,09,41,16.60
2017,09,01,09,42,16.60
2017,09,01,09,43,16.70
2017,09,01,09,44,16.80
2017,09,01,09,45,16.80
2017,09,01,09,46,16.90
2017,09,01,09,47,17.00
2017,09,01,09,48,17.10
2017,09,01,09,49,17.20
2017,09,01,09,50,17.20
2017,09,01,09,51,17.20
2017,09,01,09,52,17.30
2017,09,01,09,53,17.30
2017,09,01,09,54,17.30
2017,09,01,09,55,17.30
2017,09,01,09,56,17.40
2017,09,01,09,57,17.40
2017,09,01,09,58,17.50
2017,09,01,09,59,17.60
2017,09,01,10,00,17.60
2017,09,01,10,01,17.70
2017,09,01,10,02,17.80
2017,09,01,10,03,17.90
2017,09,01,10,04,18.00
2017,09,01,10,05,18.10
2017,09,01,10,06,18.20
2017,09,01,10,07,18.30
2017,09,01,10,08,18.30
2017,09,01,10,09,18.40
2017,09,01,10,10,18.40
2017,09,01,10,11,18.50
2017,09,01,10,12,18.60
2017,09,01,10,13,18.60
2017,09,01,10,14,18.70
2017,09,01,10,15,18.70
2017,09,01,10,16,18.70
2017,09,01,10,17,18.70
2017,09,01,10,18,18.80
2017,09,01,10,19,18.80
2017,09,01,10,20,18.80
2017,09,01,10,21,18.90
2017,09,01,10,22,18.90
2017,09,01,10,23,18.90
2017,09,01,10,24,18.90
2017,09,01,10,25,18.90
2017,09,01,10,26,18.90
2017,09,01,10,27,18.90
2017,09,01,10,28,19.00
2017,09,01,10,29,19.10
2017,09,01,10,30,19.20
2017,09,01,10,31,19.30
2017,09,01,10,32,19.40
2017,09,01,10,33,19.50
2017,09,01,10,34,19.60
2017,09,01,10,35,19.70
2017,09,01,10,36,19.70
2017,09,01,10,37,19.70
2017,09,01,10,38,19.70
2017,09,01,10,39,19.70
2017,09,01,10,40,19.70
2017,09,01,10,41,19.70
2017,09,01,10,42,19.80
2017,09,01,10,43,19.80
2017,09,01,10,44,19.90
2017,09,01,10,45,19.90
2017,09,01,10,46,19.90
2017,09,01,10,47,19.90
2017,09,01,10,48,19.90
2017,09,01,10,49,19.80
2017,09,01,10,50,19.80
2017,09,01,10,51,19.80
2017,09,01,10,52,19.80
2017,09,01,10,53,19.80
2017,09,01,10,54,19.90
2017,09,01,10,55,19.90
2017,09,01,10,56,20.00
2017,09,01,10,57,20.10
2017,09,01,10,58,20.20
2017,09,01,10,59,20.30
2017,09,01,11,00,20.30
2017,09,01,11,01,20.40
2017,09,01,11,02,20.50
2017,09,01,11,03,20.50
2017,09,01,11,04,20.50
2017,09,01,11,05,20.40
2017,09,01,11,06,20.40
2017,09,01,11,07,20.40
2017,09,01,11,08,20.40
2017,09,01,11,09,20.40
2017,09,01,11,10,20.40
2017,09,01,11,11,20.40
2017,09,01,11,12,20.40
2017,09,01,11,13,20.40
2017,09,01,11,14,20.40
2017,09,01,11,15,20.50
2017,09,01,11,16,20.50
2017,09,01,11,17,20.50
2017,09,01,11,18,20.50
2017,09,01,11,19,20.60
2017,09,01,11,20,20.60
2017,09,01,11,21,20.70
2017,09,01,11,22,20.70
2017,09,01,11,23,20.80
2017,09,01,11,24,20.90
2017,09,01,11,25,21.00
2017,09,01,11,26,21.10
2017,09,01,11,27,21.20
2017,09,01,11,28,21.30
2017,09,01,11,29,21.30
2017,09,01,11,30,21.40
2017,09,01,11,31,21.40
2017,09,01,11,32,21.50
2017,09,01,11,33,21.60
2017,09,01,11,34,21.70
2017,09,01,11,35,21.70
2017,09,01,11,36,21.80
2017,09,01,11,37,21.80
2017,09,01,11,38,21.80
2017,09,01,11,39,21.80
2017,09,01,11,40,21.80
2017,09,01,11,41,21.80
2017,09,01,11,42,21.80
2017,09,01,11,43,21.90
2017,09,01,11,44,22.00
2017,09,01,11,45,22.00
2017,09,01,11,46,22.00
2017,09,01,11,47,22.10
2017,09,01,11,48,22.20
2017,09,01,11,49,22.30
2017,09,01,11,50,22.40
2017,09,01,11,51,22.40
2017,09,01,11,52,22.40
2017,09,01,11,53,22.50
2017,09,01,11,54,22.50
2017,09,01,11,55,22.50
2017,09,01,11,56,22.50
2017,09,01,11,57,22.60
2017,09,01,11,58,22.60
2017,09,01,11,59,22.70
2017,09,01,12,00,22.80
2017,09,01,12,01,22.80
2017,09,01,12,02,22.80
2017,09,01,12,03,22.80
2017,09,01,12,04,22.80
2017,09,01,12,05,22.80
2017,09,01,12,06,22.80
2017,09,01,12,07,22.90
2017,09,01,12,08,23.00
2017,09,01,12,09,23.10
2017,09,01,12,10,23.20
2017,09,01,12,11,23.30
2017,09,01,12,12,23.40
2017,09,01,12,13,23.50
2017,09,01,12,14,23.50
2017,09,01,12,15,23.50
2017,09,01,12,16,23.50
2017,09,01,12,17,23.50
2017,09,01,12,18,23.50
2017,09,01,12,19,23.50
2017,09,01,12,20,23.50
2017,09,01,12,21,23.50
2017,09,01,12,22,23.50
2017,09,01,12,23,23.50
2017,09,01,12,24,23.50
2017,09,01,12,25,23.40
2017,09,01,12,26,23.40
2017,09,01,12,27,23.50
2017,09,01,12,28,23.50
2017,09,01,12,29,23.60
2017,09,01,12,30,23.80
2017,09,01,12,31,23.90
2017,09,01,12,32,24.10
2017,09,01,12,33,24.20
2017,09,01,12,34,24.20
2017,09,01,12,35,24.20
2017,09,01,12,36,24.20
2017,09,01,12,37,24.20
2017,09,01,12,38,24.20
2017,09,01,12,39,24.20
2017,09,01,12,40,24.20
2017,09,01,12,41,24.20
2017,09,01,12,42,24.30
2017,09,01,12,43,24.30
2017,09,01,12,44,24.40
2017,09,01,12,45,24.40
2017,09,01,12,46,24.50
2017,09,01,12,47,24.60
2017,09,01,12,48,24.60
2017,09,01,12,49,24.70
2017,09,01,12,50,24.70
2017,09,01,12,51,24.80
2017,09,01,12,52,24.80
2017,09,01,12,53,24.80
2017,09,01,12,54,24.80
2017,09,01,12,55,24.90
2017,09,01,12,56,24.90
2017,09,01,12,57,25.10
2017,09,01,12,58,25.20
2017,09,01,12,59,25.30
2017,09,01,13,00,25.40
2017,09,01,13,01,25.50
2017,09,01,13,02,25.60
2017,09,01,13,03,25.60
2017,09,01,13,04,25.60
2017,09,01,13,05,25.60
2017,09,01,13,06,25.70
2017,09,01,13,07,25.70
2017,09,01,13,08,25.70
2017,09,01,13,09,25.70
2017,09,01,13,10,25.70
2017,09,01,13,11,25.70
2017,09,01,13,12,25.80
2017,09,01,13,13,25.80
2017,09,01,13,14,26.00
2017,09,01,13,15,26.00
2017,09,01,13,16,26.20
2017,09,01,13,17,26.30
2017,09,01,13,18,26.50
2017,09,01,13,19,26.50
2017,09,01,13,20,26.60
2017,09,01,13,21,26.70
2017,09,01,13,22,26.80
2017,09,01,13,23,26.80
2017,09,01,13,24,26.80
2017,09,01,13,25,26.90
2017,09,01,13,26,26.90
2017,09,01,13,27,27.00
2017,09,01,13,28,27.10
2017,09,01,13,29,27.10
2017,09,01,13,30,27.10
2017,09,01,13,31,27.10
2017,09,01,13,32,27.10
2017,09,01,13,33,27.20
2017,09,01,13,34,27.20
2017,09,01,13,35,27.20
2017,09,01,13,36,27.20
2017,09,01,13,37,27.20
2017,09,01,13,38,27.30
2017,09,01,13,39,27.40
2017,09,01,13,40,27.50
2017,09,01,13,41,27.50
2017,09,01,13,42,27.60
2017,09,01,13,43,27.70
2017,09,01,13,44,27.70
2017,09,01,13,45,27.70
2017,09,01,13,46,27.60
2017,09,01,13,47,27.60
2017,09,01,13,48,27.60
2017,09,01,13,49,27.50
2017,09,01,13,50,27.60
2017,09,01,13,51,27.60
2017,09,01,13,52,27.60
2017,09,01,13,53,27.60
2017,09,01,13,54,27.60
2017,09,01,13,55,27.60
2017,09,01,13,56,27.60
2017,09,01,13,57,27.70
2017,09,01,13,58,27.70
2017,09,01,13,59,27.80
2017,09,01,14,00,27.80
2017,09,01,14,01,27.80
2017,09,01,14,02,27.80
2017,09,01,14,03,27.80
2017,09,01,14,04,27.80
2017,09,01,14,05,27.80
2017,09,01,14,06,27.80
2017,09,01,14,07,27.90
2017,09,01,14,08,27.90
2017,09,01,14,09,27.90
2017,09,01,14,10,27.90
2017,09,01,14,11,28.00
2017,09,01,14,12,28.00
2017,09,01,14,13,28.10
2017,09,01,14,14,28.10
2017,09,01,14,15,28.20
2017,09,01,14,16,28.20
2017,09,01,14,17,28.30
2017,09,01,14,18,28.30
2017,09,01,14,19,28.40
2017,09,01,14,20,28.30
2017,09,01,14,21,28.30
2017,09,01,14,22,28.10
2017,09,01,14,23,28.10
2017,09,01,14,24,28.00
2017,09,01,14,25,27.90
2017,09,01,14,26,27.90
2017,09,01,14,27,27.90
2017,09,01,14,28,28.00
2017,09,01,14,29,28.00
2017,09,01,14,30,28.00
2017,09,01,14,31,28.10
2017,09,01,14,32,28.10
2017,09,01,14,33,28.20
2017,09,01,14,34,28.20
2017,09,01,14,35,28.20
2017,09,01,14,36,28.20
2017,09,01,14,37,28.10
2017,09,01,14,38,28.10
2017,09,01,14,39,28.10
2017,09,01,14,40,28.10
2017,09,01,14,41,28.10
2017,09,01,14,42,28.30
2017,09,01,14,43,28.40
2017,09,01,14,44,28.40
2017,09,01,14,45,28.40
2017,09,01,14,46,28.40
2017,09,01,14,47,28.40
2017,09,01,14,48,28.40
2017,09,01,14,49,28.40
2017,09,01,14,50,28.60
2017,09,01,14,51,28.70
2017,09,01,14,52,28.80
2017,09,01,14,53,28.80
2017,09,01,14,54,28.80
2017,09,01,14,55,28.80
2017,09,01,14,56,28.80
2017,09,01,14,57,28.80
2017,09,01,14,58,28.70
2017,09,01,14,59,28.70
2017,09,01,15,00,28.70
2017,09,01,15,01,28.70
2017,09,01,15,02,28.70
2017,09,01,15,03,28.70
2017,09,01,15,04,28.70
2017,09,01,15,05,28.70
2017,09,01,15,06,28.80
2017,09,01,15,07,28.80
2017,09,01,15,08,28.80
2017,09,01,15,09,28.80
2017,09,01,15,10,28.80
2017,09,01,15,11,28.70
2017,09,01,15,12,28.70
2017,09,01,15,13,28.70
2017,09,01,15,14,28.70
2017,09,01,15,15,28.70
2017,09,01,15,16,28.70
2017,09,01,15,17,28.80
2017,09,01,15,18,28.80
2017,09,01,15,19,28.90
2017,09,01,15,20,29.00
2017,09,01,15,21,29.10
2017,09,01,15,22,29.20
2017,09,01,15,23,29.20
2017,09,01,15,24,29.20
2017,09,01,15,25,29.20
2017,09,01,15,26,29.20
2017,09,01,15,27,29.20
2017,09,01,15,28,29.10
2017,09,01,15,29,29.10
2017,09,01,15,30,29.10
2017,09,01,15,31,29.00
2017,09,01,15,32,29.00
2017,09,01,15,33,28.90
2017,09,01,15,34,28.90
2017,09,01,15,35,29.00
2017,09,01,15,36,29.00
2017,09,01,15,37,29.00
2017,09,01,15,38,29.00
2017,09,01,15,39,29.00
2017,09,01,15,40,29.10
2017,09,01,15,41,29.00
2017,09,01,15,42,28.90
2017,09,01,15,43,28.90
2017,09,01,15,44,28.90
2017,09,01,15,45,28.90
2017,09,01,15,46,28.80
2017,09,01,15,47,28.70
2017,09,01,15,48,28.70
2017,09,01,15,49,28.70
2017,09,01,15,50,28.70
2017,09,01,15,51,28.80
2017,09,01,15,52,28.80
2017,09,01,15,53,28.90
2017,09,01,15,54,28.90
2017,09,01,15,55,28.90
2017,09,01,15,56,28.90
2017,09,01,15,57,28.90
2017,09,01,15,58,28.90
2017,09,01,15,59,28.90
2017,09,01,16,00,28.80
2017,09,01,16,01,28.80
2017,09,01,16,02,28.80
2017,09,01,16,03,28.80
2017,09,01,16,04,28.90
2017,09,01,16,05,28.90
2017,09,01,16,06,28.90
2017,09,01,16,07,29.00
2017,09,01,16,08,29.00
2017,09,01,16,09,29.00
2017,09,01,16,10,29.00
2017,09,01,16,11,29.00
2017,09,01,16,12,28.90
2017,09,01,16,13,28.90
2017,09,01,16,14,28.80
2017,09,01,16,15,28.80
2017,09,01,16,16,28.80
2017,09,01,16,17,28.80
2017,09,01,16,18,28.80
2017,09,01,16,19,28.80
2017,09,01,16,20,28.80
2017,09,01,16,21,28.80
2017,09,01,16,22,28.80
2017,09,01,16,23,28.70
2017,09,01,16,24,28.70
2017,09,01,16,25,28.60
2017,09,01,16,26,28.70
2017,09,01,16,27,28.70
2017,09,01,16,28,28.70
2017,09,01,16,29,28.70
2017,09,01,16,30,28.70
2017,09,01,16,31,28.80
2017,09,01,16,32,28.80
2017,09,01,16,33,28.70
2017,09,01,16,34,28.70
2017,09,01,16,35,28.70
2017,09,01,16,36,28.60
2017,09,01,16,37,28.60
2017,09,01,16,38,28.60
2017,09,01,16,39,28.60
2017,09,01,16,40,28.50
2017,09,01,16,41,28.40
2017,09,01,16,42,28.40
2017,09,01,16,43,28.40
2017,09,01,16,44,28.40
2017,09,01,16,45,28.30
2017,09,01,16,46,28.30
2017,09,01,16,47,28.30
2017,09,01,16,48,28.30
2017,09,01,16,49,28.30
2017,09,01,16,50,28.30
2017,09,01,16,51,28.30
2017,09,01,16,52,28.30
2017,09,01,16,53,28.30
2017,09,01,16,54,28.30
2017,09,01,16,55,28.40
2017,09,01,16,56,28.40
2017,09,01,16,57,28.40
2017,09,01,16,58,28.40
2017,09,01,16,59,28.50
2017,09,01,17,00,28.50
2017,09,01,17,01,28.50
2017,09,01,17,02,28.50
2017,09,01,17,03,28.50
2017,09,01,17,04,28.50
2017,09,01,17,05,28.50
2017,09,01,17,06,28.50
2017,09,01,17,07,28.40
2017,09,01,17,08,28.50
2017,09,01,17,09,28.50
2017,09,01,17,10,28.50
2017,09,01,17,11,28.50
2017,09,01,17,12,28.40
2017,09,01,17,13,28.40
2017,09,01,17,14,28.40
2017,09,01,17,15,28.40
2017,09,01,17,16,28.40
2017,09,01,17,17,28.40
2017,09,01,17,18,28.40
2017,09,01,17,19,28.40